Flag for U.S.A. Weather past 2 weeks in Fayetteville, North Carolina, U.S.A.

Now
78 °F

Passing clouds.


Feels Like: 80 °F
Forecast: 76 / 92 °F
Wind: 7 mph from North

Location: Fayetteville Regional Airport

Current Time: Jul 31, 2015 at 6:03:53 AM

Latest Report: Jul 31, 2015 at 4:53 AM


Visibility: 10 mi

Pressure: 29.86 "Hg

Humidity: 74%

Dew point: 69 °F

Location of FayettevilleLocation

Historic Weather in Fayetteville — Graph

°F

Fayetteville temperature yesterday

Maximum temperature yesterday: 95 °F (at 4:53 PM)
Minimum temperature yesterday: 75 °F (at 4:53 AM)
Average temperature yesterday: 85 °F

Past Weeks' High & Low Weather Summary

 TemperatureHumidityPressure
High97 °F (Jul 19, 5:00 PM)97% (Jul 17, 4:53 AM)30.06 "Hg (Jul 17, 4:53 AM)
Low65 °F (Jul 26, 5:53 AM)32% (Jul 26, 4:53 PM)29.66 "Hg (Jul 21, 6:53 PM)
Average82 °F70%29.91 "Hg
* Reported Jul 16 4:53 AM — Jul 31 4:53 AM, Fayetteville, Weather by CustomWeather, © 2015

Note: Actual official high and low records may vary slightly from our data, if they occured in-between our weather recording intervals... More about our weather records

Advertising

Fayetteville weather history for previous 24 hours

 ConditionsComfort  
Time TempWeatherWind HumidityBarometerVisibility
4:53 AM
Fri, Jul 31
78 °FPassing clouds.7 mph74%29.86 "Hg10 mi
3:53 AM80 °FPassing clouds.9 mph79%29.85 "Hg10 mi
2:53 AM78 °FClear.8 mph87%29.86 "Hg10 mi
1:53 AM79 °FClear.5 mph88%29.86 "Hg10 mi
12:53 AM79 °FClear.7 mph84%29.87 "Hg10 mi
11:53 PM
Thu, Jul 30
80 °FClear.3 mph79%29.88 "Hg10 mi
10:53 PM80 °FClear.No wind79%29.88 "Hg10 mi
9:53 PM83 °FLight rain. Partly cloudy.7 mph72%29.88 "Hg10 mi
8:53 PM85 °FThundershowers. Broken clouds.5 mph68%29.86 "Hg10 mi
7:53 PM89 °FThundershowers. Passing clouds.5 mph68%29.83 "Hg10 mi
6:53 PM93 °FSunny.No wind49%29.81 "Hg10 mi
5:53 PM95 °FSunny.No wind44%29.82 "Hg10 mi
4:53 PM95 °FSunny.5 mph46%29.83 "Hg10 mi
3:53 PM93 °FPassing clouds.6 mph52%29.85 "Hg10 mi
2:53 PM92 °FBroken clouds.7 mph56%29.88 "Hg10 mi
1:53 PM94 °FSunny.3 mph48%29.90 "Hg10 mi
12:53 PM91 °FSunny.6 mph54%29.92 "Hg10 mi
11:53 AM90 °FSunny.5 mph56%29.93 "Hg10 mi
10:53 AM89 °FSunny.3 mph57%29.94 "Hg10 mi
9:53 AM85 °FSunny.3 mph65%29.94 "Hg10 mi
8:53 AM81 °FSunny.3 mph74%29.96 "Hg10 mi
7:53 AM78 °FSunny.No wind79%29.93 "Hg10 mi
6:53 AM77 °FClear.5 mph79%29.93 "Hg10 mi
Weather by CustomWeather, © 2015

See weather overviewHow to use our weather pages